#timestamp,LO_Frequency,Hit,StdDev 
1456761615.2,286046999.0,P
1456761635.9,286047000.4,N
1456761655.7,286047002.0,N
1456761675.5,286047000.3,N
1456761695.4,286046998.8,N
1456761715.2,286046997.3,N
1456761735.0,286046995.3,N
1456761735.9,286046995.3,N
1456761755.8,286046996.4,N
1456761775.6,286046992.0,N
1456761795.4,286046996.2,N
1456761815.3,286046995.1,N
1456761835.1,286046993.4,N
1456761836.0,286046993.4,N
1456761855.8,286046994.6,N
1456761875.7,286046995.6,N
1456761895.5,286046994.3,N
1456761915.3,286046991.2,N
1456761935.1,286046990.3,N
1456761955.9,286046993.0,N
1456761975.7,286046992.7,N
1456761995.6,286046988.5,Y
1456762015.4,286046994.3,P
1456762035.2,286046996.3,P
1456762055.0,286046996.4,P
1456762056.0,286046996.4,Y
1456762075.8,286047000.8,P
1456762095.6,286046997.3,N
1456762115.5,286046996.2,N
1456762135.3,286046994.5,N
1456762155.1,286046991.9,Y
1456762175.9,286046997.8,P
1456762195.7,286046997.4,P
1456762215.5,286046996.4,P
1456762235.4,286046994.0,Y
1456762255.2,286046996.5,P
1456762275.0,286047002.4,P
1456762275.9,286047002.4,N
1456762295.8,286046999.8,N
1456762315.6,286046998.9,N
1456762335.4,286046995.9,N
1456762355.2,286046994.9,N
1456762375.1,286046996.3,N
1456762376.0,286046996.3,N
1456762395.8,286046996.4,N
1456762415.6,286046994.0,N
1456762435.5,286046997.6,N
1456762455.3,286046995.6,N
1456762475.1,286046994.7,N
1456762495.9,286046994.0,N
1456762515.7,286046993.9,N
1456762535.5,286046992.9,N
1456762555.4,286046990.5,Y
1456762575.2,286046997.1,P
1456762595.0,286047000.6,N
1456762595.9,286047000.6,N
1456762615.8,286046998.4,N
1456762635.6,286046998.0,N
1456762655.4,286046994.2,Y
1456762675.3,286046993.6,P
1456762695.1,286046993.6,N
1456762696.0,286046993.6,N
1456762715.8,286046993.4,Y
1456762735.7,286046999.9,P
1456762755.5,286047002.8,N
1456762775.3,286046998.1,N
1456762795.2,286046997.3,N
1456762815.9,286046999.1,N
1456762835.7,286047002.0,N
1456762855.6,286047002.0,N
1456762875.4,286047001.9,N
1456762895.2,286047002.4,N
1456762915.0,286047000.9,N
1456762915.9,286047000.9,N
1456762935.8,286046998.4,N
1456762955.6,286046998.9,N
1456762975.4,286047001.9,N
1456762995.3,286047002.8,N
1456763015.1,286047001.9,N
1456763035.8,286046998.8,N
1456763055.7,286047000.8,N
1456763075.5,286046998.9,N
1456763095.3,286046995.2,N
1456763115.2,286046995.2,N
1456763135.9,286046998.0,N
1456763155.7,286046996.0,N
1456763175.6,286046993.8,N
1456763195.4,286046997.9,N
1456763215.2,286046998.3,N
1456763235.0,286046996.7,N
1456763236.0,286046996.7,N
1456763255.8,286046995.7,N
1456763275.6,286046996.1,N
1456763295.4,286046994.1,N
1456763315.3,286046997.1,N
1456763335.1,286046995.8,N
1456763355.8,286046994.1,N
1456763375.7,286046992.0,N
1456763395.5,286046992.0,N
1456763415.3,286046993.9,N
1456763435.2,286046996.4,N
1456763455.9,286046991.7,N
1456763475.7,286046995.8,N
1456763495.6,286046997.6,N
1456763515.4,286046997.3,N
1456763535.2,286046996.9,N
1456763555.1,286046998.6,N
1456763556.0,286046998.6,N
1456763575.8,286047000.3,N
1456763595.6,286046998.5,N
1456763615.5,286047003.2,N
1456763635.3,286047000.6,N
1456763655.1,286047001.2,N
1456763675.8,286046998.4,N
1456763695.7,286046999.5,N
1456763715.5,286046998.9,N
1456763735.3,286047003.1,N
1456763755.2,286047002.2,N
1456763775.9,286047002.8,N
1456763795.7,286047000.9,N
1456763815.6,286047000.7,N
1456763835.4,286046999.0,N
1456763855.2,286046997.7,N
1456763875.1,286046995.4,N
1456763876.0,286046995.4,N
1456763895.8,286046993.6,N
1456763915.6,286046996.1,N
1456763935.4,286046996.8,N
1456763955.3,286046995.3,N
1456763975.1,286046999.2,N
1456763995.8,286046997.5,N
1456764015.7,286046995.8,N
1456764035.5,286046995.5,N
1456764055.3,286046994.6,N
1456764075.2,286046990.4,Y
1456764095.0,286046991.8,P
1456764095.9,286046991.8,N
1456764115.7,286046991.3,N
1456764135.6,286046989.9,Y
1456764155.4,286046994.0,P
1456764175.2,286046996.3,P
1456764195.1,286046996.5,N
1456764196.0,286046996.5,N
1456764215.8,286046993.5,Y
1456764235.6,286046998.2,P
1456764255.5,286046999.0,N
1456764275.3,286046999.4,N
1456764295.1,286046997.7,N
1456764315.9,286046995.5,Y
1456764335.7,286046999.0,P
1456764355.5,286047002.2,P
1456764375.4,286047000.4,N
1456764395.2,286047001.4,N
1456764415.0,286047000.1,N
1456764415.9,286047000.1,N
1456764435.8,286046999.4,N
1456764455.6,286047000.9,N
1456764475.4,286046997.0,N
1456764495.3,286046999.3,N
1456764515.1,286046996.2,N
1456764516.0,286046996.2,N
1456764535.8,286046992.5,Y
1456764555.7,286046991.8,P
1456764575.5,286046993.2,N
1456764595.3,286046988.6,P
1456764615.2,286046989.3,N
1456764635.9,286046987.5,Y
1456764655.7,286046994.2,P
1456764675.6,286046993.9,P
1456764695.4,286046993.5,P
1456764715.2,286046995.5,Y
1456764735.1,286047003.9,P
1456764736.0,286047003.9,N
1456764755.8,286047004.3,N
1456764775.6,286047003.6,N
1456764795.5,286047004.3,N
1456764815.3,286047004.3,N
1456764835.1,286047003.4,N
1456764855.9,286047005.2,N
1456764875.7,286047009.1,N
1456764895.5,286047009.0,N
1456764915.3,286047007.8,N
1456764935.2,286047013.9,Y
1456764955.0,286047012.1,P
1456764955.9,286047012.1,P
1456764975.7,286047012.6,P
1456764995.6,286047018.7,Y
1456765015.4,286047009.1,P
1456765035.3,286047009.8,P
1456765055.1,286047012.9,P
1456765056.0,286047012.9,Y
1456765075.8,286047004.5,P
1456765095.7,286047007.2,N
1456765115.5,286047007.5,P
1456765135.3,286047008.6,Y
1456765155.2,286047005.1,P
1456765175.9,286047008.7,P
1456765195.7,286047009.0,P
